{"data":{"norad_id":65114,"epoch":"2026-09-21T18:36:20.694528Z","epoch_age_seconds":54955,"freshness":"FRESH","line1":"1 65114U 25168J   26264.77523952 -.00000085  00000+0  84591-4 0  9993","line2":"2 65114  50.0035 338.9051 0008743  32.6295 327.5116 13.29330967 55558","mean_motion":13.29330967,"eccentricity":0.0008743,"inclination_deg":50.0035,"raan_deg":338.9051,"arg_perigee_deg":32.6295,"mean_anomaly_deg":327.5116,"bstar":8.4591e-5,"rev_number":5555,"period_min":108.32516775335,"perigee_km":1142.7065936295,"apogee_km":1155.8690486718,"semimajor_km":7527.4248211506,"source":"CELESTRAK","updated_at":"2026-09-22T09:00:30.140698Z"}}